TimeCDT,TemperatureF,Dew PointF,Humidity,Sea Level PressureIn,VisibilityMPH,Wind Direction,Wind SpeedMPH,Gust SpeedMPH,PrecipitationIn,Events,Conditions,WindDirDegrees,DateUTC
12:53 AM,37.9,36.0,93,30.09,10.0,Calm,Calm,-,N/A,,Clear,0,2012-10-09 05:53:00
1:53 AM,37.9,36.0,93,30.09,10.0,Calm,Calm,-,N/A,,Clear,0,2012-10-09 06:53:00
2:53 AM,37.4,35.6,93,30.08,10.0,Calm,Calm,-,N/A,,Clear,0,2012-10-09 07:53:00
3:53 AM,36.0,34.0,93,30.07,10.0,Calm,Calm,-,N/A,,Clear,0,2012-10-09 08:53:00
4:53 AM,35.1,34.0,96,30.06,10.0,Calm,Calm,-,N/A,,Clear,0,2012-10-09 09:53:00
5:53 AM,35.1,34.0,96,30.05,10.0,Calm,Calm,-,N/A,,Clear,0,2012-10-09 10:53:00
6:53 AM,33.1,33.1,100,30.06,10.0,Calm,Calm,-,N/A,,Clear,0,2012-10-09 11:53:00
7:53 AM,36.0,35.1,97,30.06,10.0,Calm,Calm,-,N/A,,Clear,0,2012-10-09 12:53:00
8:53 AM,46.9,43.0,86,30.06,10.0,SSE,3.5,-,N/A,,Clear,160,2012-10-09 13:53:00
9:53 AM,54.0,43.0,66,30.04,10.0,South,8.1,-,N/A,,Clear,170,2012-10-09 14:53:00
10:53 AM,57.9,43.0,58,30.03,10.0,SSE,13.8,18.4,N/A,,Clear,160,2012-10-09 15:53:00
11:53 AM,60.1,44.1,55,30.00,10.0,South,15.0,23.0,N/A,,Mostly Cloudy,180,2012-10-09 16:53:00
12:53 PM,61.0,46.9,60,29.98,10.0,South,16.1,-,N/A,,Overcast,190,2012-10-09 17:53:00
1:53 PM,64.0,48.9,58,29.94,10.0,South,17.3,24.2,N/A,,Mostly Cloudy,180,2012-10-09 18:53:00
2:53 PM,64.0,48.9,58,29.92,10.0,South,15.0,19.6,N/A,,Overcast,190,2012-10-09 19:53:00
3:53 PM,63.0,50.0,63,29.92,10.0,South,9.2,-,N/A,,Overcast,180,2012-10-09 20:53:00
4:53 PM,62.1,50.0,65,29.94,10.0,WSW,3.5,-,N/A,,Overcast,240,2012-10-09 21:53:00
5:35 PM,60.8,51.8,72,29.96,10.0,WSW,3.5,-,0.00,,Overcast,240,2012-10-09 22:35:00
5:53 PM,61.0,52.0,72,29.96,10.0,SSW,3.5,-,0.00,,Overcast,210,2012-10-09 22:53:00
6:53 PM,60.1,53.1,78,29.97,10.0,SSW,8.1,-,N/A,,Overcast,200,2012-10-09 23:53:00
7:00 PM,60.8,53.6,77,29.97,10.0,SSW,9.2,-,N/A,,Overcast,210,2012-10-10 00:00:00
7:53 PM,59.0,53.1,81,30.00,10.0,SW,3.5,-,N/A,,Overcast,220,2012-10-10 00:53:00
8:53 PM,57.9,54.0,87,30.01,10.0,SW,3.5,-,N/A,,Overcast,230,2012-10-10 01:53:00
9:53 PM,57.0,53.1,87,30.03,10.0,SW,3.5,-,N/A,,Overcast,230,2012-10-10 02:53:00
10:53 PM,53.1,52.0,96,30.05,8.0,Calm,Calm,-,N/A,,Clear,0,2012-10-10 03:53:00
11:19 PM,53.6,53.6,100,30.08,7.0,Calm,Calm,-,N/A,,Mostly Cloudy,0,2012-10-10 04:19:00
11:53 PM,54.0,52.0,93,30.08,6.0,NNW,3.5,-,N/A,,Mostly Cloudy,330,2012-10-10 04:53:00